When you browse on this site, cookies collect data to enhance your experience and personalize the content and advertising you see.
Visit our Privacy Policy to learn more. By continuing to use the site, you agree to this use of cookies and data.
  • Em Portugal
  • Lista de países
  • Para 7 dias
  • Temperatura da água
  • Mapa do tempo
  • Widgets de tempo
  • user-avatar
    Iniciar Sessão

    Previsão horária em Sidnei

    Hoje, 22 Agosto, Quinta-feira

    Tempo Temperatura Precipitação Vento Pressão Humidade
    00:00 +12°C° 0 mm 5 m/s 759 mmHg 64%
    01:00 +10°C° 0 mm 5 m/s 758 mmHg 66%
    02:00 +10°C° 0 mm 5 m/s 758 mmHg 67%
    03:00 +11°C° 0 mm 4 m/s 758 mmHg 69%
    04:00 +11°C° 0 mm 3 m/s 757 mmHg 70%
    05:00 +11°C° 0 mm 4 m/s 757 mmHg 68%
    06:00 +10°C° 0 mm 5 m/s 757 mmHg 66%
    07:00 +10°C° 0 mm 6 m/s 757 mmHg 65%
    08:00 +12°C° 0 mm 7 m/s 757 mmHg 55%
    09:00 +16°C° 0 mm 8 m/s 758 mmHg 45%
    10:00 +18°C° 0 mm 8 m/s 759 mmHg 35%
    11:00 +19°C° 0 mm 9 m/s 759 mmHg 32%
    12:00 +19°C° 0 mm 10 m/s 759 mmHg 30%
    13:00 +19°C° 0 mm 10 m/s 759 mmHg 27%
    14:00 +18°C° 0 mm 11 m/s 760 mmHg 32%
    15:00 +16°C° 0 mm 11 m/s 760 mmHg 38%
    16:00 +14°C° 0 mm 12 m/s 761 mmHg 43%
    17:00 +13°C° 0 mm 11 m/s 762 mmHg 44%
    18:00 +12°C° 0 mm 10 m/s 763 mmHg 46%
    19:00 +11°C° 0 mm 10 m/s 764 mmHg 47%
    20:00 +11°C° 0 mm 9 m/s 765 mmHg 48%
    21:00 +10°C° 0 mm 9 m/s 766 mmHg 49%
    22:00 +9°C° 0 mm 8 m/s 766 mmHg 51%
    23:00 +9°C° 0 mm 7 m/s 767 mmHg 50%

    Amanhã, 23 Agosto, Sexta-feira

    Tempo Temperatura Precipitação Vento Pressão Humidade
    00:00 +8°C° 0 mm 7 m/s 767 mmHg 50%
    01:00 +7°C° 0 mm 6 m/s 767 mmHg 49%
    02:00 +5°C° 0 mm 6 m/s 767 mmHg 52%
    03:00 +5°C° 0 mm 6 m/s 767 mmHg 55%
    04:00 +5°C° 0 mm 5 m/s 767 mmHg 57%
    05:00 +5°C° 0 mm 5 m/s 767 mmHg 58%
    06:00 +5°C° 0 mm 5 m/s 768 mmHg 58%
    07:00 +4°C° 0 mm 4 m/s 768 mmHg 59%
    08:00 +7°C° 0 mm 4 m/s 768 mmHg 53%
    09:00 +11°C° 0 mm 3 m/s 768 mmHg 47%
    10:00 +14°C° 0 mm 3 m/s 769 mmHg 41%
    11:00 +16°C° 0 mm 2 m/s 768 mmHg 38%
    12:00 +17°C° 0 mm 2 m/s 767 mmHg 34%
    13:00 +20°C° 0 mm 1 m/s 767 mmHg 30%
    14:00 +19°C° 0 mm 2 m/s 766 mmHg 30%
    15:00 +19°C° 0 mm 3 m/s 766 mmHg 30%
    16:00 +20°C° 0 mm 4 m/s 766 mmHg 30%
    17:00 +17°C° 0 mm 4 m/s 766 mmHg 43%
    18:00 +14°C° 0 mm 5 m/s 766 mmHg 56%
    19:00 +12°C° 0 mm 5 m/s 766 mmHg 69%
    20:00 +10°C° 0 mm 5 m/s 766 mmHg 69%
    21:00 +10°C° 0 mm 4 m/s 766 mmHg 68%
    22:00 +8°C° 0 mm 4 m/s 766 mmHg 67%
    23:00 +8°C° 0 mm 4 m/s 766 mmHg 65%

    Depois de amanhã, 24 Agosto, Sábado

    Tempo Temperatura Precipitação Vento Pressão Humidade
    00:00 +8°C° 0 mm 3 m/s 765 mmHg 63%
    01:00 +8°C° 0 mm 3 m/s 765 mmHg 60%
    02:00 +7°C° 0 mm 3 m/s 765 mmHg 61%
    03:00 +7°C° 0 mm 3 m/s 764 mmHg 62%
    04:00 +5°C° 0 mm 3 m/s 764 mmHg 62%
    05:00 +5°C° 0 mm 3 m/s 764 mmHg 60%
    06:00 +5°C° 0 mm 3 m/s 764 mmHg 58%
    07:00 +6°C° 0 mm 4 m/s 765 mmHg 57%
    08:00 +10°C° 0 mm 3 m/s 764 mmHg 46%
    09:00 +13°C° 0 mm 3 m/s 764 mmHg 36%
    10:00 +18°C° 0 mm 3 m/s 763 mmHg 26%
    11:00 +20°C° 0 mm 3 m/s 763 mmHg 24%
    12:00 +22°C° 0 mm 3 m/s 762 mmHg 21%
    13:00 +25°C° 0 mm 2 m/s 761 mmHg 18%
    14:00 +25°C° 0 mm 3 m/s 761 mmHg 19%
    15:00 +25°C° 0 mm 3 m/s 761 mmHg 20%
    16:00 +25°C° 0 mm 4 m/s 760 mmHg 21%
    17:00 +22°C° 0 mm 4 m/s 761 mmHg 26%
    18:00 +20°C° 0 mm 5 m/s 761 mmHg 32%
    19:00 +17°C° 0 mm 6 m/s 761 mmHg 37%
    20:00 +16°C° 0 mm 5 m/s 761 mmHg 43%
    21:00 +14°C° 0 mm 4 m/s 761 mmHg 48%
    22:00 +13°C° 0 mm 4 m/s 762 mmHg 53%
    23:00 +12°C° 0 mm 3 m/s 761 mmHg 56%

    25 Agosto, Domingo

    Tempo Temperatura Precipitação Vento Pressão Humidade
    00:00 +12°C° 0 mm 3 m/s 761 mmHg 59%
    01:00 +11°C° 0 mm 3 m/s 761 mmHg 62%
    02:00 +11°C° 0 mm 3 m/s 761 mmHg 62%
    03:00 +10°C° 0 mm 4 m/s 760 mmHg 62%
    04:00 +10°C° 0 mm 4 m/s 760 mmHg 63%
    05:00 +10°C° 0 mm 4 m/s 760 mmHg 60%
    06:00 +10°C° 0 mm 4 m/s 761 mmHg 58%
    07:00 +10°C° 0 mm 4 m/s 761 mmHg 55%
    08:00 +13°C° 0 mm 3 m/s 761 mmHg 47%
    09:00 +16°C° 0 mm 3 m/s 762 mmHg 39%
    10:00 +19°C° 0 mm 3 m/s 762 mmHg 31%
    11:00 +19°C° 0 mm 4 m/s 761 mmHg 36%
    12:00 +19°C° 0 mm 6 m/s 761 mmHg 41%
    13:00 +18°C° 0 mm 8 m/s 761 mmHg 46%
    14:00 +17°C° 0 mm 7 m/s 761 mmHg 50%
    15:00 +16°C° 0 mm 7 m/s 761 mmHg 55%
    16:00 +15°C° 0 mm 6 m/s 761 mmHg 59%
    17:00 +14°C° 0 mm 6 m/s 762 mmHg 63%
    18:00 +13°C° 0 mm 5 m/s 763 mmHg 67%
    19:00 +12°C° 0 mm 4 m/s 764 mmHg 71%
    20:00 +12°C° 0 mm 4 m/s 764 mmHg 71%
    21:00 +12°C° 0 mm 3 m/s 765 mmHg 70%
    22:00 +12°C° 0 mm 3 m/s 765 mmHg 70%
    23:00 +12°C° 0 mm 3 m/s 765 mmHg 70%

    26 Agosto, Segunda-feira

    Tempo Temperatura Precipitação Vento Pressão Humidade
    00:00 +12°C° 0 mm 3 m/s 765 mmHg 70%
    01:00 +11°C° 0 mm 3 m/s 765 mmHg 70%
    02:00 +11°C° 0.1 mm 3 m/s 765 mmHg 72%
    03:00 +11°C° 0.1 mm 3 m/s 765 mmHg 73%
    04:00 +11°C° 0.1 mm 3 m/s 765 mmHg 75%
    05:00 +11°C° 0.1 mm 3 m/s 765 mmHg 75%
    06:00 +11°C° 0.1 mm 3 m/s 765 mmHg 75%
    07:00 +11°C° 0.1 mm 3 m/s 766 mmHg 76%
    08:00 +12°C° 0.1 mm 3 m/s 766 mmHg 73%
    09:00 +13°C° 0.1 mm 3 m/s 766 mmHg 71%
    10:00 +13°C° 0.1 mm 3 m/s 766 mmHg 68%
    11:00 +14°C° 0.2 mm 3 m/s 765 mmHg 67%
    12:00 +14°C° 0.2 mm 3 m/s 765 mmHg 67%
    13:00 +14°C° 0.2 mm 3 m/s 765 mmHg 66%
    14:00 +14°C° 0.2 mm 4 m/s 764 mmHg 65%
    15:00 +14°C° 0.2 mm 4 m/s 764 mmHg 64%
    16:00 +15°C° 0.2 mm 4 m/s 764 mmHg 63%
    17:00 +14°C° 0.1 mm 4 m/s 765 mmHg 66%
    18:00 +13°C° 0.1 mm 4 m/s 765 mmHg 69%
    19:00 +12°C° 0.1 mm 4 m/s 766 mmHg 72%
    20:00 +12°C° 0.1 mm 3 m/s 766 mmHg 73%
    21:00 +12°C° 0.1 mm 3 m/s 767 mmHg 73%
    22:00 +12°C° 0.1 mm 3 m/s 767 mmHg 74%
    23:00 +12°C° 0.2 mm 3 m/s 767 mmHg 74%

    27 Agosto, Terça-feira

    Tempo Temperatura Precipitação Vento Pressão Humidade
    00:00 +12°C° 0.2 mm 3 m/s 766 mmHg 74%
    01:00 +12°C° 0.2 mm 3 m/s 766 mmHg 75%
    02:00 +12°C° 0.1 mm 3 m/s 766 mmHg 75%
    03:00 +12°C° 0.1 mm 3 m/s 766 mmHg 75%
    04:00 +12°C° 0.1 mm 3 m/s 766 mmHg 75%
    05:00 +12°C° 0.1 mm 3 m/s 766 mmHg 75%
    06:00 +12°C° 0.1 mm 3 m/s 767 mmHg 75%
    07:00 +12°C° 0.1 mm 3 m/s 767 mmHg 75%
    08:00 +13°C° 0.6 mm 2 m/s 767 mmHg 78%
    09:00 +13°C° 0.6 mm 2 m/s 767 mmHg 80%
    10:00 +13°C° 0.6 mm 2 m/s 767 mmHg 83%
    11:00 +13°C° 0.7 mm 2 m/s 767 mmHg 81%
    12:00 +14°C° 0.7 mm 2 m/s 766 mmHg 78%
    13:00 +15°C° 0.7 mm 2 m/s 766 mmHg 76%
    14:00 +15°C° 0.3 mm 2 m/s 766 mmHg 74%
    15:00 +14°C° 0.3 mm 3 m/s 766 mmHg 72%
    16:00 +14°C° 0.3 mm 3 m/s 766 mmHg 71%
    17:00 +13°C° 0.1 mm 3 m/s 766 mmHg 76%
    18:00 +12°C° 0.1 mm 3 m/s 767 mmHg 82%
    19:00 +12°C° 0.1 mm 3 m/s 767 mmHg 88%
    20:00 +12°C° 0.1 mm 3 m/s 767 mmHg 87%
    21:00 +12°C° 0.1 mm 4 m/s 768 mmHg 87%
    22:00 +12°C° 0.1 mm 4 m/s 768 mmHg 87%
    23:00 +12°C° 0.4 mm 4 m/s 767 mmHg 87%
    Mostrar mais